This is the latest recevied weather packets stored in our database for station/object KD8FRE. If no packets are shown the sender has not sent any weather packets the latest 10 day(s).
| Time | Temp. | Humidity | Pressure | Rain* | Wind** | Luminosity | Snow |
|---|---|---|---|---|---|---|---|
| 1777986241 | 13.33° C | 58% | 1004.9 hPa | 0 mm | - | 77 W/m² | - |
| 1777985938 | 13.89° C | 57% | 1004.4 hPa | 0 mm | - | 104 W/m² | - |
| 1777985636 | 13.89° C | 57% | 1004.1 hPa | 0 mm | - | 215 W/m² | - |
| 1777985332 | 13.89° C | 58% | 1004.2 hPa | 0 mm | - | 177 W/m² | - |
| 1777985029 | 13.89° C | 57% | 1004.2 hPa | 0 mm | - | 182 W/m² | - |
| 1777984725 | 13.89° C | 57% | 1004.4 hPa | 0 mm | - | 150 W/m² | - |
| 1777984422 | 13.33° C | 57% | 1004.2 hPa | 0 mm | - | 147 W/m² | - |
| 1777984118 | 13.33° C | 57% | 1004.2 hPa | 0 mm | - | 115 W/m² | - |
| 1777983816 | 13.33° C | 59% | 1004.1 hPa | 0 mm | - | 116 W/m² | - |
| 1777983512 | 13.33° C | 58% | 1004.3 hPa | 0 mm | - | 102 W/m² | - |
| 1777983209 | 13.89° C | 58% | 1003.9 hPa | 0 mm | - | 112 W/m² | - |
| 1777982905 | 13.89° C | 60% | 1004.1 hPa | 0 mm | - | 106 W/m² | - |
| 1777982601 | 13.33° C | 61% | 1003.9 hPa | 0 mm | - | 98 W/m² | - |
| 1777982300 | 13.33° C | 62% | 1004.2 hPa | 0 mm | - | 79 W/m² | - |
| 1777981998 | 13.33° C | 65% | 1004 hPa | 0 mm | - | 70 W/m² | - |
| 1777981695 | 13.33° C | 64% | 1003.5 hPa | 0 mm | - | 48 W/m² | - |
| 1777981391 | 13.33° C | 65% | 1003.8 hPa | 0 mm | - | 57 W/m² | - |
| 1777981088 | 13.33° C | 66% | 1003.7 hPa | 0 mm | - | 62 W/m² | - |
| 1777980784 | 13.33° C | 69% | 1004 hPa | 0 mm | - | 42 W/m² | - |
| 1777980480 | 13.33° C | 70% | 1003.7 hPa | 0 mm | - | 27 W/m² | - |
| 1777980178 | 13.33° C | 72% | 1003.9 hPa | 0 mm | - | 17 W/m² | - |
| 1777979879 | 13.33° C | 73% | 1003.4 hPa | 0 mm | - | 16 W/m² | - |
| 1777979574 | 13.33° C | 74% | 1003.3 hPa | 0 mm | - | 12 W/m² | - |
| 1777979270 | 13.33° C | 76% | 1003.3 hPa | 0 mm | - | 16 W/m² | - |
| 1777978968 | 13.33° C | 78% | 1003 hPa | 0 mm | - | 16 W/m² | - |
* Rain latest hour (hover to see other rain measurements)
** Current wind speed in m/s (hover to see current wind gust speed)